This is the latest recevied weather packets stored in our database for station/object W3AJR. If no packets are shown the sender has not sent any weather packets the latest 10 day(s).
| Time | Temp. | Humidity | Pressure | Rain* | Wind** | Luminosity | Snow |
|---|---|---|---|---|---|---|---|
| 1777819949 | 11.67° C | 42% | 1017.9 hPa | 0 mm | - | 778 W/m² | - |
| 1777819646 | 11.11° C | 43% | 1017.8 hPa | 0 mm | - | 769 W/m² | - |
| 1777819344 | 11.11° C | 43% | 1017.7 hPa | 0 mm | - | 766 W/m² | - |
| 1777819040 | 10.56° C | 44% | 1017.7 hPa | 0 mm | - | 714 W/m² | - |
| 1777818738 | 10° C | 44% | 1017.6 hPa | 0 mm | - | 109 W/m² | - |
| 1777818434 | 10.56° C | 46% | 1017.9 hPa | 0 mm | - | 111 W/m² | - |
| 1777818131 | 10° C | 45% | 1017.8 hPa | 0 mm | - | 84 W/m² | - |
| 1777817828 | 10° C | 45% | 1018 hPa | 0 mm | - | 83 W/m² | - |
| 1777817525 | 10° C | 48% | 1017.9 hPa | 0 mm | - | 115 W/m² | - |
| 1777817221 | 10° C | 47% | 1017.9 hPa | 0 mm | - | 92 W/m² | - |
| 1777816919 | 9.44° C | 48% | 1017.8 hPa | 0 mm | - | 125 W/m² | - |
| 1777816615 | 9.44° C | 48% | 1017.8 hPa | 0 mm | - | 148 W/m² | - |
| 1777816313 | 9.44° C | 47% | 1018 hPa | 0 mm | - | 131 W/m² | - |
| 1777816010 | 9.44° C | 49% | 1017.9 hPa | 0 mm | - | 143 W/m² | - |
| 1777815708 | 9.44° C | 50% | 1017.8 hPa | 0 mm | - | 120 W/m² | - |
| 1777815405 | 8.89° C | 50% | 1017.7 hPa | 0 mm | - | 102 W/m² | - |
| 1777815102 | 8.89° C | 50% | 1017.9 hPa | 0 mm | - | 104 W/m² | - |
| 1777814798 | 8.89° C | 50% | 1017.8 hPa | 0 mm | - | 106 W/m² | - |
| 1777814495 | 8.89° C | 50% | 1017.7 hPa | 0 mm | - | 104 W/m² | - |
| 1777814192 | 8.89° C | 51% | 1017.9 hPa | 0 mm | - | 91 W/m² | - |
| 1777813889 | 8.33° C | 53% | 1018 hPa | 0 mm | - | 76 W/m² | - |
| 1777813586 | 8.89° C | 51% | 1017.9 hPa | 0 mm | - | 51 W/m² | - |
| 1777813284 | 8.33° C | 53% | 1017.9 hPa | 0 mm | - | 57 W/m² | - |
| 1777812981 | 8.33° C | 52% | 1018 hPa | 0 mm | - | 54 W/m² | - |
| 1777812679 | 8.33° C | 54% | 1017.9 hPa | 0 mm | - | 54 W/m² | - |
* Rain latest hour (hover to see other rain measurements)
** Current wind speed in m/s (hover to see current wind gust speed)